Weather in Chayek

Kyrgyzstan     41°55′38″N   74°31′03″E
temp.,
°C
wind,
m/s
gust,
m/s
humid.,
%
clouds,
%
prec.,
mm/h
press.,
hPa
HPBL,
m
27 october, wed
wed2700:000nnw114486 0.0 102412
03:00−1n114873 0.0 102510
06:00−1n114989 0.0 102610
09:00+2e004169 0.0 1027112
12:00+5s223155 0.0 1025843
15:00+7se122888 0.0 10221246
18:00+5nne1135100 0.0 1022126
21:00+3nnw2250100 0.0 102323
28 october, thu
thu2800:00+2nnw2250100 0.0 102414
03:00+2nne1148100 0.0 102210
06:00+1nne1150100 0.0 102210
09:00+3ne1142100 0.0 102360
12:00+6sse1135100 0.0 1021635
15:00+7s1131100 0.0 1019752
18:00+5sw1136100 0.0 101917
21:00+4ssw1143100 0.0 102110
29 october, fri
fri2900:00+1sw115413 0.0 102210
03:00+1wnw115643 0.0 102416
06:00−2nw11683 0.0 102510
09:00+1ene10553 0.0 1027135
12:00+4s21442 0.0 1024791
15:00+7s22378 0.1 10221247
18:00+4wsw344555 0.5 102352
21:00+1wnw226084 0.6 102727
30 october, sat
sat3000:000w227053 1.3 102922
03:00−2nw227132 0.2 103212
06:00−3nnw226535 0.2 103512
09:00−1nne11565 0.0 1036132
12:00+2sse11523 0.0 1033691
15:00+4se11422 0.0 10301006
18:00+1ne11550 0.0 103113
21:00−1nnw22573 0.0 103213
31 october, sun
sun3100:00−2nnw22583 0.0 103310
03:00−3nnw116473 0.0 103210
06:00−2nne1159100 0.0 103210
09:000ne1153100 0.1 103267
12:00+2ssw224271 0.2 1030654
15:00+5ssw232851 0.0 10281665
18:00+1wsw33395 0.0 102933
21:00−1wnw225085 0.0 103224